Regional Weather Roundup
Issued by NWS

Home | Current Version | Previous Version | Graphics & Text | Print | Product List | Glossary On
Versions: 1 2 3 4 5 6 7 8 9 10 11 12 13 14 15 16 17 18 19 20 21 22 23 24 25 26 27 28 29 30 31 32 33 34 35 36 37 38 39 40 41 42 43 44 45 46 47 48 49 50
525
ASUS45 KTFX 211010
RWRMT
MONTANA REGIONAL WEATHER ROUNDUP
NATIONAL WEATHER SERVICE GREAT FALLS MT
300 AM MST TUE NOV 21 2017

NOTE: "FAIR" INDICATES FEW OR NO CLOUDS BELOW 12000 FEET WITH NO
SIGNIFICANT WEATHER AND/OR OBSTRUCTIONS TO VISIBILITY.

MTZ001>007-043-211100-
WEST OF THE DIVIDE

CITY           SKY/WX    TMP DP  RH WIND       PRES   REMARKS
KALISPELL      CLOUDY    35  35 100 CALM      30.12R FOG
MISSOULA       FOG       34  34 100 NW3       30.16R VSB 1/2
BUTTE          FAIR      27  23  85 E3        30.15R
MULLAN PASS    CLOUDY    28  26  92 VRB7      30.09R WCI  21
ANACONDA         N/A     34  19  55 W7        30.14S WCI  28
DEER LODGE       N/A     34  30  86 CALM      30.17R
EUREKA           N/A     37  36  93 MISG      30.11R
HAMILTON         N/A     34  28  80 CALM      30.17R
LIBBY            N/A     36  36 100 CALM      30.12R
PLAINS           N/A     34  31  89 CALM      30.15  VSB 0
RONAN            N/A     38  34  85 SE1       30.16R
$$

MTZ008-052>055-211100-
SOUTHWEST MONTANA

CITY           SKY/WX    TMP DP  RH WIND       PRES   REMARKS
BOZEMAN        FAIR      29  28  96 E3        30.16R
DILLON         FAIR      32  29  88 CALM      30.13R
W YELLOWSTONE  CLOUDY    28  28 100 CALM      30.15R FOG
ENNIS          PTCLDY    30  28  93 NE5       30.19R
TWIN BRIDGES     N/A     33  26  76 CALM      30.12
$$

MTZ009-010-012-014-046-048-049-054-211100-
EAST SLOPES AND CENTRAL MONTANA

CITY           SKY/WX    TMP DP  RH WIND       PRES   REMARKS
CUT BANK       CLOUDY    15   8  73 CALM      30.17F
GREAT FALLS    CLOUDY    20  16  84 E7        30.21R WCI  11
MALMSTROM AFB  FAIR      16  16 100 NE3       30.23R
HELENA         CLOUDY    32  28  85 CALM      30.14R
BOWMANS CRNR   CLOUDY    21  20  96 E7        30.14R WCI  13
CHOTEAU          N/A     21  19  93 E6        30.19F WCI  14
FAIRFIELD      CLOUDY    22  18  85 E10       30.18R WCI  11
POWER          CLOUDY    18  17  95 E6        30.19R WCI  10
RAYNESFORD     CLOUDY    22  21  97 NW5       30.19R
ULM            MOCLDY    23  21  93 E6        30.20S WCI  15
$$

MTZ011-013-016-021-045-047-050-051-211100-
NORTH CENTRAL MONTANA

CITY           SKY/WX    TMP DP  RH WIND       PRES   REMARKS
HAVRE          CLOUDY    17   6  62 NW7       30.30R WCI   8
LEWISTOWN      LGT SNOW  24  23  96 W7        30.20R FOG     WCI  16
N BAR RANCH    LGT SNOW  23  19  86 CALM      30.19R
CHINOOK          N/A     14   1  57 NW3       30.31R
DENTON         MOCLDY    20  19  93 MISG      30.19R
GEYSER         CLOUDY    21  19  91 SE6       30.18R WCI  13
GRASS RANGE    FLURRIES  24  22  92 CALM      30.17R
STANFORD       MOCLDY    21  20  96 NW3       30.17R
WINIFRED       FLURRIES  22  21  96 W9        30.20R WCI  12
$$

MTZ017>020-022>027-061-062-211100-
NORTHEAST MONTANA

CITY           SKY/WX    TMP DP  RH WIND       PRES   REMARKS
GLASGOW        FAIR       5  -2  72 NW9       30.30R WCI  -9
JORDAN           N/A     15   5  64 N13       30.25R WCI   1
SIDNEY         FAIR       5  -2  72 NW9       30.28R WCI  -9
WOLF POINT     FAIR       4  -4  69 NW7       30.32R WCI  -8
MALTA          CLEAR     10   0  61 CALM      30.33R
PLENTYWOOD       N/A      1  -6  71 W14       30.21R WCI -17
POPLAR           N/A      3  -4  72 W7        30.31R WCI  -9
SCOBEY           N/A     -1 -14  54 NW8       30.20  WCI -15
$$

MTZ028>42-056>058-211100-
SOUTHCENTRAL AND SOUTHEAST MONTANA

CITY           SKY/WX    TMP DP  RH WIND       PRES   REMARKS
BAKER          CLOUDY    13   3  64 NW17      30.18R WCI  -4
BILLINGS       CLOUDY    27  25  92 NE6       30.22R WCI  20
LIVINGSTON     MOCLDY    29  29 100 E14       30.15R WCI  18
MILES CITY     CLOUDY    20  10  65 N15       30.24R WCI   6
BIG TIMBER     CLOUDY    27  25  93 NE6       30.21R WCI  20
EKALAKA          N/A     17   7  65 NW7       30.10  WCI   8
FORSYTH          N/A     25  21  86 N5        30.23R
HARLOWTON      CLOUDY    24  21  91 SE6       30.20R WCI  17
LAUREL           N/A     25  23  93 NE7       30.24R WCI  17
$$

REGIONAL REPORTS...DAKOTAS

CITY           SKY/WX    TMP DP  RH WIND       PRES   REMARKS
WILLISTON      FAIR       4  -2  76 NW15G23   30.26R WCI -14
MINOT          FAIR       9   2  73 NW22G30   30.12R WCI -11
DICKINSON      FAIR       6  -1  73 NW15      30.13R WCI -12
BEACH          FAIR       5  -2  72 NW14      30.21R WCI -12
CROSBY         FAIR       1  -4  78 NW20      30.21R WCI -20
TIOGA          FAIR       3   0  85 NW17G24   30.17R WCI -17
WATFORD CITY   FAIR       5  -2  72 NW16      30.21R WCI -14
BISMARCK       MOCLDY    18   6  59 NW16G28   30.12R WCI   3
GRAND FORKS    CLOUDY    17  10  74 NW28G39   29.92R WCI  -2
FARGO          CLOUDY    20  10  65 NW26G38   29.89R WCI   2
BUFFALO SD       N/A     18   7  62 NW20G28   30.07R WCI   2
RAPID CITY     CLOUDY    28  25  88 NW20      30.07R WCI  15
$$

REGIONAL REPORTS...WYOMING/IDAHO/WASHINGTON

CITY           SKY/WX    TMP DP  RH WIND       PRES   REMARKS
GILLETTE       CLOUDY    24  22  91 N7        30.12R WCI  16
SHERIDAN       LGT SNOW  27  25  92 NE6       30.18R FOG     WCI  20
BUFFALO WY     CLOUDY    27  23  85 N16       30.12R WCI  15
CODY           CLOUDY    32  29  88 N10       30.12R WCI  24
YELLOWSTONE LA   N/A     29  28  96 CALM      30.16R
IDAHO FALLS    CLOUDY    38  35  89 N3        30.17R
SALMON         MOCLDY    31  30  96 CALM      30.19R
BOISE          CLOUDY    47  43  86 E6        30.15S
SPOKANE        FAIR      35  35 100 SE5       30.13R FOG
$$

REGIONAL REPORTS...ALBERTA

CITY           SKY/WX    TMP DP  RH WIND       PRES   REMARKS
EDMONTON       CLOUDY     0  -8  71 CALM      30.26R
CALGARY        CLOUDY    12   5  73 SE14      30.12F WCI  -3
LETHBRIDGE     CLOUDY    16  10  79 SE6       30.21S WCI   7
MEDICINE HAT   CLEAR      5  -2  72 E2        30.33R
$$

REGIONAL REPORTS...SASKATCHEWAN

CITY           SKY/WX    TMP DP  RH WIND       PRES   REMARKS
SWIFT CURRENT  CLEAR     -6 -11  77 W16       30.23R WCI -28
REGINA         FLURRIES   3  -2  78 NW15      30.23R WCI -15
SASKATOON      FLURRIES   3  -2  78 W10       30.30R WCI -12
$$




USA.gov is the U.S. government's official web portal to all federal, state and local government web resources and services.